« Back
NWS Peachtree City, Ga » Text Product » GA Regional Weather Roundup


Printer-friendly Version
Current Version              Previous Versions:   1  2  3  4  5  6  7  8  9  

Regional Weather Roundup

191
ASUS42 KFFC 200403
RWRGA
WEATHER ROUNDUP FOR GEORGIA
NATIONAL WEATHER SERVICE PEACHTREE CITY GA
1200 AM EDT SUN APR 20 2014

NOTE: "FAIR" INDICATES FEW OR NO CLOUDS BELOW 12,000 FEET WITH NO
SIGNIFICANT WEATHER AND/OR OBSTRUCTIONS TO VISIBILITY.

* = USE WITH CAUTION. THE STATIONS MARKED WITH AN ASTERISK MAY NOT
REPORT WEATHER SUCH AS PRECIPITATION, FOG, OR THUNDER AND ARE NOT
QUALITY CONTROLLED BY NWS.

THE REMARK "TC" DENOTES TEMPERATURE READING IN DEGREES CELSIUS.

GAZ001>058-200500-
NORTH GEORGIA

CITY           SKY/WX    TMP DP  RH WIND       PRES   REMARKS
ATLANTA        MOCLDY    54  42  64 NE16      30.18F
ATHENS         CLOUDY    53  44  71 NE9       30.18F
CHAMBLEE       MOCLDY    54  40  59 VRB5      30.18F
PEACHTREE CITY CLOUDY    55  44  66 VRB5      30.17F
ROME           PTCLDY    58  54  86 SE3       30.16F
WEST ATLANTA   CLEAR     55  41  59 NE9       30.18F
GAINESVILLE    CLOUDY    53  42  66 NE12      30.21S
CARTERSVILLE   CLOUDY    56  49  77 E6        30.19F


CITY           SKY/WX    TMP DP  RH WIND       PRES   REMARKS
DALTON*        CLOUDY    55  50  82 CALM      30.18F
MARIETTA       PTCLDY    56  42  60 VRB7      30.19F
$$

GAZ059>098-102>109-200500-
CENTRAL GEORGIA

CITY           SKY/WX    TMP DP  RH WIND       PRES   REMARKS
AUGUSTA-BUSH   CLOUDY    54  50  86 N13       30.12F
AUGUSTA-DANIEL CLOUDY    53  50  89 NE16G22   30.13S
COLUMBUS       CLOUDY    57  47  69 E9G20     30.15S
MACON          CLOUDY    54  50  86 NE12      30.14R
ROBINS AFB     CLOUDY    54  51  90 N9        30.13R


CITY           SKY/WX    TMP DP  RH WIND       PRES   REMARKS
LAGRANGE*      PTCLDY    57  47  69 NE5       30.16S
SYLVANIA*      RAIN      55  52  88 NE6       30.10R
MILLEDGEVILLE* CLOUDY    54  50  87 N6        30.16S FOG
$$

GAZ099>101-110>166-200500-
SOUTH GEORGIA

CITY           SKY/WX    TMP DP  RH WIND       PRES   REMARKS
SAVANNAH       DRIZZLE   55  52  89 N13G23    30.04S
VALDOSTA       CLOUDY    60  55  83 N9        30.06R
ALMA           CLOUDY    57  52  83 VRB7G17   30.06S
ST SIMONS      LGT RAIN  57  56  96 NW10      30.04R FOG
FT STEWART     CLOUDY    56  56 100 N14       30.04R
ALBANY         CLOUDY    57  52  83 N6        30.12R
HUNTER AFB     CLOUDY    56  55  96 N9G21     30.01S
MOODY AFB      CLOUDY    57  57  99 N10       30.05S
BRUNSWICK      CLOUDY    57  55  94 NW3       30.06R


CITY           SKY/WX    TMP DP  RH WIND       PRES   REMARKS
BAINBRIDGE*    CLOUDY    61  55  82 N12G17    30.10S
MOULTRIE*      CLOUDY    57  55  94 N7G18     30.08S
VIDALIA*       CLOUDY    55  54  94 N10G17    30.08S
DOUGLAS*       CLOUDY    57  55  94 N6        30.08F
$$



USA.gov is the U.S. government's official web portal to all federal, state and local government web resources and services.